Location: B
(0.0000°N, 0.0000°E)
Time: 08:49:24
(UTC+02:00)

Daily predictions for brighter satellites

Satellite Brightness Start Highest point End
(mag) Time Altitude Azimuth Time Altitude Azimuth Time Altitude Azimuth
ARIANE 5 R/B 4.1 19:24:29 10° WNW 19:28:26 62° N 19:56:25 10° E
ARIANE 5 R/B 4.1 19:24:30 10° WNW 19:28:26 62° N 19:56:25 10° E
ARIANE 5 R/B 4.1 19:24:29 10° WNW 19:28:26 62° N 19:56:24 10° E
ARIANE 5 DEB (SYLDA) 4.3 19:39:50 10° WSW 19:44:16 72° S 20:05:34 10° E
ATLAS 2A CENTAUR R/B 3.2 19:56:39 10° SW 20:01:21 67° SE 20:19:19 10° ENE
SPELTRA 4.2 20:04:26 10° WNW 20:08:08 45° NNE 20:18:32 10° E
COSMOS 2406 3.3 20:12:28 10° S 20:18:07 59° ESE 20:23:44 10° NNE
Delta 2 Rocket 4.2 20:14:05 10° NW 20:19:45 75° NE 20:25:33 10° ESE
Cosmos 1975 Rocket 3.1 20:15:23 10° S 20:19:51 71° E 20:24:18 10° N
SMAP 4.2 20:16:04 10° S 20:20:33 48° WSW 20:25:01 10° NNW
Cosmos 1437 4.4 20:22:19 10° SE 20:24:18 15° E 20:26:18 10° ENE
Cosmos 1607 4.3 20:18:55 10° NNW 20:25:20 73° WSW 20:31:43 10° SSE
GPS 2-17 Rocket1 3.9 20:21:06 10° SW 20:25:34 35° SSE 20:30:01 10° E
SPOT 3 Rocket 3.6 20:22:03 10° SSE 20:27:13 86° ENE 20:32:21 10° NNW
SL-27 R/B 3.8 20:27:34 10° SSE 20:30:24 21° ESE 20:33:14 10° NE
ARIANE 5 R/B 3.2 20:26:43 10° W 20:30:35 59° N 20:35:51 10° E
GPS 2-04 Rocket1 2.9 20:27:48 10° WSW 20:31:09 60° NW 20:34:30 10° NE
Cosmos 1125 Rocket 3.9 20:27:03 10° N 20:32:00 43° ENE 20:36:54 10° SSE
Okean 1 Rocket 3.3 20:30:12 10° NNE 20:34:27 48° E 20:38:42 10° SSE
ALOS 3.6 20:32:02 10° SE 20:35:30 21° ENE 20:38:58 10° NNE
Centaur D-1A AC-31 4.1 20:31:01 10° S 20:36:03 23° SE 20:53:00 10° E
ARIANE 5 DEB (SYLDA) 2.6 20:39:15 10° WSW 20:41:04 29° S 20:42:21 17° ESE
GPS 2-05 Rocket1 4.4 20:39:20 10° N 20:41:37 19° NE 20:43:28 12° ENE
Cosmos 1536 Rocket 4.4 20:37:56 10° SSE 20:41:43 29° E 20:45:28 10° NNE
Cosmos 1812 4.0 20:43:47 10° SSW 20:47:31 45° W 20:51:13 10° NNW
SL-08 R/B 4.5 20:42:26 10° N 20:48:38 85° E 20:54:55 10° S
Helios 1B rocket 4.4 20:46:58 10° ENE 20:47:40 12° E 20:47:40 12° E
FREGAT/IRIS 3.7 20:47:59 19° ESE 20:49:15 26° E 20:51:50 10° NNE
Cosmos 2315 Rocket 3.9 20:43:13 10° S 20:49:26 74° E 20:55:41 10° N
Cosmos 1745 Rocket 3.9 20:48:38 10° N 20:54:52 77° E 21:01:03 10° S
ARIANE 5 R/B 3.4 20:51:39 10° W 20:55:25 82° S 21:13:43 14° E
ARIANE 5 R/B 3.4 20:51:39 10° W 20:55:25 82° S 21:13:41 14° E
ARIANE 5 R/B 3.4 20:51:40 10° W 20:55:26 82° S 21:13:43 14° E
NOAA 12 4.0 20:51:25 10° SSE 20:56:37 68° ENE 21:01:48 10° N
Okean 1 3.5 20:53:44 10° S 20:57:42 72° W 21:01:38 10° N
Cosmos 1386 Rocket 4.4 20:54:45 10° N 21:00:40 61° E 21:06:35 10° SSE
ARIANE 5 DEB (SYLDA) 4.3 20:58:43 10° W 21:02:46 68° N 21:14:22 12° E
Sylda 4400 3.0 21:03:25 10° WSW 21:05:46 47° S 21:06:34 37° SE
ARIANE 3 DEB 3.4 21:01:37 10° WSW 21:07:03 37° S 21:08:03 30° SSE
Meteor 2-4 Rocket 4.4 21:03:50 18° SE 21:07:04 31° E 21:11:57 10° NNE
H-2A R/B 3.6 21:14:57 31° ENE 21:14:57 31° ENE 21:17:50 10° NNE
GPS 2-15 Rocket1 4.3 21:10:55 10° W 21:15:30 40° NNW 21:19:38 12° NE
Cosmos 1544 Rocket 4.3 21:15:30 10° NNE 21:18:52 32° ENE 21:18:52 32° ENE
HJ-1C 3.6 21:26:26 56° NNE 21:26:26 56° NNE 21:29:17 10° N
Centaur AC-42 3.9 21:19:14 10° NW 21:28:09 25° N 21:31:02 15° NE
Cosmos 1975 3.9 21:26:12 10° NNE 21:28:42 30° NE 21:28:42 30° NE
Cosmos 1943 Rocket 2.3 21:26:52 10° N 21:32:08 46° ENE 21:32:34 45° E
Resurs 01 Rocket 2.5 21:35:22 36° NE 21:35:22 36° NE 21:38:29 10° N
Cosmos 2369 Rocket 2.4 21:29:46 10° NNW 21:35:25 69° WSW 21:38:45 25° S
Spot 2 Rocket 4.1 21:37:49 38° NE 21:37:49 38° NE 21:41:41 10° N
Milstar 3 4.2 21:29:04 10° W 21:39:17 35° SW 21:43:10 23° SSE
Meteor 1-12 Rocket 4.2 21:36:02 10° N 21:41:54 67° E 21:42:57 56° SE
SJ-6B 3.8 21:41:00 31° SSW 21:42:33 48° WSW 21:46:32 10° NNW
Intelsat 5-1 Rocket 3.3 21:37:36 10° NW 21:43:41 31° NNE 21:44:05 30° NNE
Cosmos 1455 Rocket 3.8 21:39:48 10° N 21:42:38 39° NNE 21:42:38 39° NNE
ATLAS CENTAUR Rocket 2.7 21:28:23 10° WNW 21:47:31 87° SSW 21:48:56 55° SE
Meteor 1-23 Rocket 4.1 21:49:23 66° ENE 21:49:23 66° ENE 21:54:32 10° NNE
Iridium 4 Rocket 4.3 21:46:45 10° N 21:52:21 59° W 21:56:53 17° SSW
COSMOS 2455 3.2 21:47:37 10° N 21:52:42 48° NE 21:52:42 48° NE
GPS 2-12 Rocket1 3.9 21:49:28 10° NW 21:53:03 42° N 21:53:03 42° N
Cosmos 2082 Rocket 4.3 22:04:06 14° NNE 22:04:06 14° NNE 22:04:52 10° NNE
Milstar 3 Cent rocket 4.1 21:59:52 10° WSW 22:08:17 76° NNW 22:27:33 10° NE
GPS 2-17 Rocket1 4.2 22:04:15 10° WSW 22:07:34 42° W 22:07:34 42° W
Ariane H10 4.3 21:38:31 10° W 22:27:13 63° S 22:28:20 60° SSE
CENTAUR R/B 3.7 22:24:54 10° N 22:30:54 44° NNE 22:30:54 44° NNE
